FW8074 Weather Reports


time (UTC)temp
C
wind
direction
speed
KPH
gust
KPH
rain 1hr
cm
rain 24hr
cm
rain mn
cm
humidity
%
barometer
mb
20260505184554 26 280 3.2 11.3 0.00 0.00 0.00 46 1012.9
20260505183054 25 257 8.0 12.9 0.00 0.00 0.00 46 1013.3
20260505181638 26 275 6.4 14.5 0.00 0.00 0.00 48 1013.2
20260505180103 26 275 6.4 14.5 0.00 0.00 0.00 47 1013.1
20260505174556 25 260 4.8 14.5 0.00 0.00 0.00 47 1013.1
20260505173055 25 286 6.4 16.1 0.00 0.00 0.00 49 1013.4
20260505171603 25 279 8.0 16.1 0.00 0.00 0.00 49 1013.5
20260505170055 25 243 6.4 17.7 0.00 0.00 0.00 51 1013.5
20260505164555 25 240 3.2 11.3 0.00 0.00 0.00 52 1013.9
20260505163057 24 276 6.4 14.5 0.00 0.00 0.00 54 1014.1
20260505161555 23 248 4.8 11.3 0.00 0.00 0.00 55 1014.1
20260505153059 22 0 4.8 11.3 0.00 0.00 0.00 61 1014.4
20260505151559 22 284 6.4 12.9 0.00 0.00 0.00 60 1014.5
20260505140109 20 271 4.8 11.3 0.00 0.00 0.00 70 1014.3
20260505124554 16 269 3.2 6.4 0.00 0.00 0.00 81 1014.2
20260505123101 16 242 0.0 3.2 0.00 0.00 0.00 84 1014.0
20260505121555 14 0 0.0 1.6 0.00 0.00 0.00 88 1013.8
20260505120117 13 0 0.0 1.6 0.00 0.00 0.00 92 1014.0
20260505114557 11 0 0.0 1.6 0.00 0.00 0.00 96 1013.7
20260505113056 10 0 0.0 0.0 0.00 0.00 0.00 95 1013.7
20260505111557 10 0 0.0 0.0 0.00 0.00 0.00 95 1013.5
20260505110112 10 0 0.0 0.0 0.00 0.00 0.00 95 1013.6
20260505101601 10 0 0.0 0.0 0.00 0.00 0.00 93 1013.2
20260505100055 10 0 0.0 0.0 0.00 0.00 0.00 93 1013.0
20260505094557 10 0 0.0 0.0 0.00 0.00 0.00 92 1013.0
20260505093056 10 0 0.0 0.0 0.00 0.00 0.00 91 1013.1
20260505091558 10 0 0.0 0.0 0.00 0.00 0.00 91 1013.1
20260505090057 11 0 0.0 0.0 0.00 0.00 0.00 90 1013.0
20260505084602 11 0 0.0 0.0 0.00 0.00 0.00 89 1012.9
20260505083108 11 0 0.0 0.0 0.00 0.00 0.00 88 1012.8
20260505081554 12 0 0.0 0.0 0.00 0.00 0.00 87 1012.7
20260505080110 12 0 0.0 0.0 0.00 0.00 0.00 86 1012.7
20260505074555 12 0 0.0 0.0 0.00 0.00 0.00 86 1012.5
20260505073101 12 0 0.0 0.0 0.00 0.00 0.00 85 1012.4
20260505071558 13 0 0.0 0.0 0.00 0.00 0.00 84 1012.3
20260505070101 13 0 0.0 0.0 0.00 0.00 0.00 83 1012.4
20260505064648 13 0 0.0 0.0 0.00 0.00 0.00 83 1012.5
20260505063100 13 0 0.0 0.0 0.00 0.00 0.00 81 1012.8
20260505061601 13 0 0.0 0.0 0.00 0.00 0.00 81 1012.6
20260505060104 13 0 0.0 0.0 0.00 0.00 0.00 81 1012.7
20260505054601 14 0 0.0 0.0 0.00 0.00 0.00 78 1012.7
20260505053106 14 0 0.0 0.0 0.00 0.00 0.00 77 1012.9
20260505051558 15 0 0.0 0.0 0.00 0.00 0.00 76 1013.1
20260505050110 15 0 0.0 0.0 0.00 0.00 0.00 76 1013.1
20260505041604 16 0 0.0 0.0 0.00 0.00 0.00 74 1013.3
20260505034609 16 0 0.0 0.0 0.00 0.00 0.00 71 1013.2
20260505033056 17 0 0.0 3.2 0.00 0.00 0.00 69 1013.3
20260505031555 17 251 0.0 3.2 0.00 0.00 0.00 68 1013.6
20260505030127 18 238 0.0 6.4 0.00 0.00 0.00 65 1013.4
20260505024610 18 248 3.2 6.4 0.00 0.00 0.00 63 1013.3
20260505023054 19 251 3.2 11.3 0.00 0.00 0.00 63 1013.0
20260505021554 19 254 3.2 6.4 0.00 0.00 0.00 62 1013.0
20260505020106 19 251 4.8 9.7 0.00 0.00 0.00 60 1012.9
20260505014557 20 251 3.2 6.4 0.00 0.00 0.00 58 1012.7
20260505013055 19 251 3.2 6.4 0.00 0.00 0.00 57 1012.3
20260505011601 18 0 0.0 1.6 0.00 0.00 0.00 58 1012.1
20260505010111 20 0 0.0 1.6 0.00 0.00 0.00 53 1011.9
20260505004622 20 0 0.0 3.2 0.00 0.00 0.00 51 1011.8
20260505003059 21 0 0.0 0.0 0.00 0.00 0.00 49 1011.6
20260505001554 22 0 0.0 4.8 0.00 0.00 0.00 47 1011.5
20260505000111 22 253 1.6 9.7 0.00 0.00 0.00 46 1011.5
20260504234553 23 252 3.2 11.3 0.00 0.00 0.00 44 1011.3
20260504233059 23 256 4.8 11.3 0.00 0.00 0.00 42 1011.2
20260504231621 24 244 3.2 9.7 0.00 0.00 0.00 40 1011.2
20260504230058 24 241 3.2 11.3 0.00 0.00 0.00 40 1011.0
20260504224600 24 237 4.8 12.9 0.00 0.00 0.00 39 1011.1
20260504223058 25 257 3.2 11.3 0.00 0.00 0.00 39 1011.1
20260504221644 25 247 4.8 11.3 0.00 0.00 0.00 38 1011.1
20260504220110 25 250 4.8 12.9 0.00 0.00 0.00 36 1011.1
20260504214604 25 247 1.6 16.1 0.00 0.00 0.00 36 1011.1
20260504213103 25 253 4.8 9.7 0.00 0.00 0.00 35 1011.2
20260504211600 25 262 6.4 12.9 0.00 0.00 0.00 34 1011.3
20260504210058 26 265 4.8 12.9 0.00 0.00 0.00 34 1011.2
20260504204556 26 243 4.8 14.5 0.00 0.00 0.00 35 1011.3
20260504203058 26 277 3.2 12.9 0.00 0.00 0.00 35 1011.4
20260504201602 26 253 4.8 11.3 0.00 0.00 0.00 33 1011.4
20260504200057 26 278 6.4 14.5 0.00 0.00 0.00 35 1011.6
20260504194603 26 263 6.4 11.3 0.00 0.00 0.00 35 1011.7
20260504193057 25 256 3.2 12.9 0.00 0.00 0.00 33 1011.9
20260504191613 25 277 8.0 17.7 0.00 0.00 0.00 33 1012.0
20260504190059 26 300 4.8 12.9 0.00 0.00 0.00 36 1012.2